Regional Weather Roundup
Issued by NWS Sioux Falls, SD

Home | Current Version | Previous Version | Text Only | Print | Product List | Glossary Off
Versions: 1 2 3 4 5 6 7 8 9 10 11 12 13 14 15 16 17 18 19 20 21 22 23 24 25 26 27 28 29 30 31 32 33 34 35 36 37 38 39 40 41 42 43 44 45 46 47 48 49 50

000
ASUS43 KFSD 300710
RWRFSD

WEATHER ROUNDUP FOR SE SOUTH DAKOTA/SW MINNESOTA/NW IOWA
NATIONAL WEATHER SERVICE SIOUX FALLS SD
200 AM CDT MON MAY 30 2016

NOTE: "FAIR" INDICATES FEW OR NO CLOUDS BELOW 12,000 FEET WITH NO
SIGNIFICANT WEATHER AND OR OBSTRUCTIONS TO VISIBILITY.


SDZ038>040-050-052>070-300800-
SOUTHEAST SOUTH DAKOTA

CITY           SKY/WX    TMP DP  RH WIND       PRES   REMARKS
BROOKINGS      CLEAR     58  53  84 CALM      30.00F
CHAMBERLAIN    CLOUDY    67  58  73 NE8       29.99R
HURON          CLOUDY    59  53  80 S7        29.95F
MADISON        FAIR      57  57 100 E3        30.00F
MITCHELL       CLOUDY    64  57  78 S6        29.98S
SIOUX FALLS    CLOUDY    58  55  90 N3        29.99F
WINNER         FAIR      64  56  75 S10       29.93F
YANKTON        CLOUDY    64  55  72 NW10      30.01R THUNDER
$$

MNZ071-072-080-081-089-090-097-098-300800-
SOUTHWEST MINNESOTA

CITY           SKY/WX    TMP DP  RH WIND       PRES   REMARKS
FAIRMONT       CLEAR     59  52  77 CALM      30.02S
JACKSON        CLEAR     59  50  72 CALM      30.03F
LUVERNE        CLOUDY    57  52  82 NE6       30.00F
MARSHALL       PTCLDY    59  52  77 S6        29.99F
MONTEVIDEO     CLEAR     57  46  67 CALM      30.00F
PIPESTONE      CLEAR     61  50  67 CALM      30.01S
REDWOOD FALLS  CLEAR     60  49  66 CALM      29.99F
TRACY          CLEAR     62  53  72 SW6       30.00F
WINDOM         CLEAR     57  52  82 CALM      30.02F
WORTHINGTON    CLEAR     60  54  80 CALM      30.03F
$$

IAZ001>003-012>014-020>022-031-032-NEZ013-014-SDZ071-300800-
NORTHWEST IOWA

CITY           SKY/WX    TMP DP  RH WIND       PRES   REMARKS
CHEROKEE       CLOUDY    58  58 100 CALM      30.01S
DENISON        CLOUDY    66  55  68 VRB3      30.00F
ESTHERVILLE    CLEAR     56  53  90 CALM      30.02S
LE MARS        CLOUDY    64  55  72 CALM      30.00S
ORANGE CITY    CLOUDY    64  54  68 CALM      30.00S
SHELDON        CLOUDY    59  55  88 E3        30.00S
SIOUX CITY     CLOUDY    66  56  70 E3        29.99F
SPENCER        CLOUDY    56  53  90 E5        30.02F
STORM LAKE     CLOUDY    64  50  59 E6        30.02F
$$

ABBREVIATIONS USED IN REMARKS
   TC - TEMPERATURE IN CELSIUS
  WCI - WIND CHILL INDEX
   HX - HEAT INDEX
  VSB - VISIBILITY




USA.gov is the U.S. government's official web portal to all federal, state and local government web resources and services.